FW9983 Weather Reports


Display with metric or nautical units.
time (UTC)temp
F
wind
direction
speed
MPH
gust
MPH
rain 1hr
in
rain 24hr
in
rain mn
in
humidity
%
barometer
mb
20260505230544 82 0 2.0 8.0 0.00 0.00 0.00 60 1004.4
20260505230058 83 289 3.0 8.0 0.00 0.00 0.00 59 1004.5
20260505225546 83 300 2.0 8.0 0.00 0.00 0.00 59 1004.4
20260505225045 84 294 2.0 5.0 0.00 0.00 0.00 57 1004.2
20260505224554 85 0 1.0 8.0 0.00 0.00 0.00 57 1004.0
20260505224049 85 0 2.0 8.0 0.00 0.00 0.00 55 1004.0
20260505223544 85 0 2.0 8.0 0.00 0.00 0.00 54 1004.1
20260505223052 85 325 1.0 8.0 0.00 0.00 0.00 54 1004.3
20260505222544 85 329 2.0 5.0 0.00 0.00 0.00 53 1004.1
20260505222048 86 325 1.0 8.0 0.00 0.00 0.00 52 1003.9
20260505221555 86 299 1.0 8.0 0.00 0.00 0.00 52 1003.9
20260505221046 87 349 2.0 8.0 0.00 0.00 0.00 51 1003.8
20260505220544 88 15 2.0 10.0 0.00 0.00 0.00 50 1003.7
20260505220055 89 355 1.0 10.0 0.00 0.00 0.00 50 1003.6
20260505215547 91 287 2.0 8.0 0.00 0.00 0.00 48 1003.4
20260505215044 92 351 2.0 8.0 0.00 0.00 0.00 48 1003.6
20260505214604 93 292 1.0 7.0 0.00 0.00 0.00 45 1003.7
20260505214043 93 263 2.0 7.0 0.00 0.00 0.00 46 1003.7
20260505213543 93 236 1.0 8.0 0.00 0.00 0.00 44 1003.7
20260505213051 94 232 2.0 8.0 0.00 0.00 0.00 46 1003.5
20260505212548 94 307 2.0 8.0 0.00 0.00 0.00 47 1003.7
20260505212048 93 0 1.0 7.0 0.00 0.00 0.00 48 1003.7
20260505211549 93 281 1.0 7.0 0.00 0.00 0.00 48 1003.8
20260505211045 93 286 1.0 7.0 0.00 0.00 0.00 49 1004.0
20260505210547 93 246 1.0 4.0 0.00 0.00 0.00 50 1003.9
20260505210051 92 207 1.0 8.0 0.00 0.00 0.00 50 1004.0
20260505205547 92 281 2.0 8.0 0.00 0.00 0.00 50 1004.1
20260505205044 92 0 1.0 10.0 0.00 0.00 0.00 52 1004.0
20260505204618 92 282 3.0 10.0 0.00 0.00 0.00 51 1004.0
20260505204046 91 183 1.0 9.0 0.00 0.00 0.00 53 1004.3
20260505203547 91 0 2.0 9.0 0.00 0.00 0.00 53 1004.2
20260505203049 91 248 3.0 8.0 0.00 0.00 0.00 53 1004.3
20260505202550 91 245 1.0 9.0 0.00 0.00 0.00 53 1004.3
20260505202047 90 211 1.0 9.0 0.00 0.00 0.00 56 1004.4
20260505201557 90 269 2.0 9.0 0.00 0.00 0.00 54 1004.5
20260505201044 90 238 1.0 9.0 0.00 0.00 0.00 56 1004.4
20260505200544 90 248 3.0 9.0 0.00 0.00 0.00 55 1004.5
20260505200054 90 317 2.0 11.0 0.00 0.00 0.00 56 1004.6
20260505195546 90 0 2.0 11.0 0.00 0.00 0.00 57 1004.5
20260505195048 89 248 2.0 12.0 0.00 0.00 0.00 56 1004.5
20260505194552 89 306 4.0 12.0 0.00 0.00 0.00 57 1004.4
20260505194044 89 243 3.0 12.0 0.00 0.00 0.00 57 1004.5
20260505193548 89 244 3.0 12.0 0.00 0.00 0.00 57 1004.6
20260505193053 88 213 3.0 9.0 0.00 0.00 0.00 58 1004.6
20260505192547 88 296 2.0 11.0 0.00 0.00 0.00 58 1004.7
20260505192047 88 221 3.0 13.0 0.00 0.00 0.00 59 1004.5
20260505191603 87 240 4.0 13.0 0.00 0.00 0.00 59 1004.6
20260505191049 87 231 4.0 11.0 0.00 0.00 0.00 60 1004.7
20260505190550 87 65 1.0 9.0 0.00 0.00 0.00 62 1004.7
20260505190058 86 194 3.0 9.0 0.00 0.00 0.00 63 1004.6
20260505185547 86 273 3.0 10.0 0.00 0.00 0.00 64 1004.7
20260505185047 86 277 1.0 11.0 0.00 0.00 0.00 63 1004.7
20260505184551 85 229 2.0 11.0 0.00 0.00 0.00 63 1004.8
20260505184044 85 168 2.0 8.0 0.00 0.00 0.00 64 1004.9
20260505183544 85 240 1.0 8.0 0.00 0.00 0.00 64 1004.9
20260505183124 85 281 2.0 8.0 0.00 0.00 0.00 64 1004.8
20260505182544 85 240 2.0 8.0 0.00 0.00 0.00 65 1005.0
20260505182048 85 243 2.0 8.0 0.00 0.00 0.00 64 1005.0
20260505181553 84 161 1.0 9.0 0.00 0.00 0.00 66 1004.8
20260505181044 84 239 1.0 9.0 0.00 0.00 0.00 66 1005.0
20260505180543 84 239 3.0 10.0 0.00 0.00 0.00 67 1004.9
20260505180049 83 235 2.0 13.0 0.00 0.00 0.00 67 1004.9
20260505175547 83 254 3.0 13.0 0.00 0.00 0.00 66 1005.0
20260505175048 83 268 2.0 11.0 0.00 0.00 0.00 66 1004.9
20260505174552 83 324 2.0 11.0 0.00 0.00 0.00 66 1004.9
20260505174048 83 159 2.0 10.0 0.00 0.00 0.00 66 1004.8
20260505173548 83 234 3.0 12.0 0.00 0.00 0.00 66 1004.8
20260505173059 83 181 2.0 12.0 0.00 0.00 0.00 67 1004.8
20260505172550 83 191 2.0 12.0 0.00 0.00 0.00 67 1005.0
20260505172047 83 238 1.0 12.0 0.00 0.00 0.00 67 1005.0
20260505171604 83 241 2.0 8.0 0.00 0.00 0.00 66 1005.0
20260505171044 83 255 2.0 11.0 0.00 0.00 0.00 68 1004.9
20260505170543 82 203 3.0 11.0 0.00 0.00 0.00 68 1005.0
20260505170058 82 259 2.0 11.0 0.00 0.00 0.00 69 1005.0
20260505165544 81 252 3.0 13.0 0.00 0.00 0.00 69 1005.0
20260505165044 81 289 2.0 15.0 0.00 0.00 0.00 70 1005.0
20260505164552 80 207 6.0 15.0 0.00 0.00 0.00 70 1004.9
20260505164044 80 222 4.0 15.0 0.00 0.00 0.00 71 1005.0
20260505163547 80 261 4.0 14.0 0.00 0.00 0.00 70 1004.9
20260505163102 80 261 4.0 14.0 0.00 0.00 0.00 71 1004.8
20260505162544 80 248 3.0 17.0 0.00 0.00 0.00 71 1004.9
20260505162044 80 246 4.0 17.0 0.00 0.00 0.00 71 1004.9
20260505161629 80 232 3.0 11.0 0.00 0.00 0.00 71 1004.8
20260505161047 80 304 5.0 14.0 0.00 0.00 0.00 71 1004.9
20260505160544 80 268 4.0 14.0 0.00 0.00 0.00 72 1004.9
20260505153059 77 337 3.0 12.0 0.00 0.00 0.00 76 1004.4
20260505152548 77 315 3.0 10.0 0.00 0.00 0.00 76 1004.3
20260505152043 77 281 3.0 10.0 0.00 0.00 0.00 76 1004.5
20260505151618 77 248 2.0 11.0 0.00 0.00 0.00 76 1004.4
20260505151044 77 227 4.0 11.0 0.00 0.00 0.00 76 1004.4
20260505150548 77 235 2.0 10.0 0.00 0.00 0.00 77 1004.4
20260505140546 73 225 3.0 14.0 0.00 0.00 0.00 82 1004.1
20260505124551 70 229 2.0 13.0 0.00 0.00 0.00 86 1003.8
20260505124047 70 269 3.0 11.0 0.00 0.00 0.00 87 1003.8
20260505123549 70 162 2.0 9.0 0.00 0.00 0.00 87 1003.8
20260505123054 70 121 2.0 12.0 0.00 0.00 0.00 87 1003.9
20260505122546 70 0 3.0 12.0 0.00 0.00 0.00 87 1003.7
20260505122047 70 179 2.0 9.0 0.00 0.00 0.00 87 1003.7
20260505121556 70 225 3.0 10.0 0.00 0.00 0.00 87 1003.4
20260505121048 70 265 2.0 10.0 0.00 0.00 0.00 87 1003.4
20260505120544 70 255 2.0 10.0 0.00 0.00 0.00 87 1003.3
20260505120108 70 149 2.0 14.0 0.00 0.00 0.00 87 1003.4
20260505115546 70 237 3.0 14.0 0.00 0.00 0.00 87 1003.4
20260505115046 70 252 3.0 15.0 0.00 0.00 0.00 87 1003.3
20260505114550 70 183 1.0 15.0 0.00 0.00 0.00 87 1003.3
20260505114047 70 267 4.0 15.0 0.00 0.00 0.00 87 1003.3
20260505113546 70 255 2.0 15.0 0.00 0.00 0.00 87 1003.2
20260505113048 70 206 2.0 15.0 0.00 0.00 0.00 87 1003.1
20260505112547 70 288 4.0 15.0 0.00 0.00 0.00 87 1003.1
20260505112043 70 215 3.0 10.0 0.00 0.00 0.00 87 1003.2
20260505111552 70 236 1.0 9.0 0.00 0.00 0.00 86 1003.1
20260505111048 70 188 2.0 10.0 0.00 0.00 0.00 87 1003.2
20260505110548 70 281 2.0 12.0 0.00 0.00 0.00 87 1003.2
20260505102047 70 237 3.0 12.0 0.00 0.00 0.00 86 1003.1
20260505101555 70 217 3.0 14.0 0.00 0.00 0.00 86 1003.2
20260505101044 70 277 4.0 14.0 0.00 0.00 0.00 85 1003.1
20260505100544 70 243 2.0 12.0 0.00 0.00 0.00 85 1003.2
20260505100054 70 142 3.0 14.0 0.00 0.00 0.00 85 1003.3
20260505095543 71 202 3.0 15.0 0.00 0.00 0.00 85 1003.2
20260505095046 71 263 4.0 15.0 0.00 0.00 0.00 85 1003.2
20260505094550 71 227 2.0 13.0 0.00 0.00 0.00 85 1003.2
20260505094051 71 176 3.0 14.0 0.00 0.00 0.00 84 1003.2
20260505093544 71 169 3.0 14.0 0.00 0.00 0.00 84 1003.1
20260505093057 71 145 2.0 10.0 0.00 0.00 0.00 84 1003.3
20260505092546 71 206 3.0 10.0 0.00 0.00 0.00 84 1003.3
20260505092047 71 200 2.0 11.0 0.00 0.00 0.00 84 1003.3
20260505091550 71 159 2.0 11.0 0.00 0.00 0.00 84 1003.4
20260505091042 71 199 3.0 15.0 0.00 0.00 0.00 83 1003.5
20260505090543 71 271 3.0 15.0 0.00 0.00 0.00 83 1003.6
20260505090052 71 169 3.0 15.0 0.00 0.00 0.00 83 1003.6
20260505085543 71 152 3.0 14.0 0.00 0.00 0.00 83 1003.7
20260505085043 71 250 3.0 15.0 0.00 0.00 0.00 83 1003.7
20260505084547 71 173 2.0 15.0 0.00 0.00 0.00 82 1003.6
20260505084043 72 217 4.0 15.0 0.00 0.00 0.00 82 1003.5
20260505083546 72 205 3.0 17.0 0.00 0.00 0.00 82 1003.7
20260505083051 72 147 4.0 17.0 0.00 0.00 0.00 82 1003.7
20260505082548 72 214 2.0 15.0 0.00 0.00 0.00 82 1003.6
20260505082048 72 186 4.0 17.0 0.00 0.00 0.00 82 1003.5
20260505081552 72 250 5.0 17.0 0.00 0.00 0.00 81 1003.4
20260505081046 72 252 4.0 18.0 0.00 0.00 0.00 81 1003.6
20260505080547 72 271 3.0 18.0 0.00 0.00 0.00 81 1003.7
20260505080055 72 178 4.0 14.0 0.00 0.00 0.00 81 1003.6
20260505075547 72 185 5.0 14.0 0.00 0.00 0.00 80 1003.7
20260505075043 72 164 4.0 14.0 0.00 0.00 0.00 80 1003.6
20260505074557 72 214 5.0 14.0 0.00 0.00 0.00 79 1003.8
20260505074043 72 178 4.0 12.0 0.00 0.00 0.00 79 1003.9
20260505073543 72 171 5.0 12.0 0.00 0.00 0.00 79 1004.0
20260505073104 72 166 5.0 12.0 0.00 0.00 0.00 79 1004.1
20260505072543 73 192 2.0 12.0 0.00 0.00 0.00 78 1004.3
20260505072046 73 236 4.0 13.0 0.00 0.00 0.00 78 1004.2
20260505071553 73 221 4.0 15.0 0.00 0.00 0.00 78 1004.3
20260505071047 73 143 4.0 15.0 0.00 0.00 0.00 78 1004.4
20260505070547 73 198 3.0 14.0 0.00 0.00 0.00 77 1004.5
20260505070049 73 167 3.0 11.0 0.00 0.00 0.00 77 1004.5
20260505065547 73 179 3.0 11.0 0.00 0.00 0.00 77 1004.8
20260505065047 73 167 4.0 14.0 0.00 0.00 0.00 76 1004.8
20260505064550 73 165 3.0 14.0 0.00 0.00 0.00 76 1005.0
20260505064046 73 271 5.0 15.0 0.00 0.00 0.00 76 1004.9
20260505063543 74 331 3.0 18.0 0.00 0.00 0.00 75 1004.9
20260505063050 74 186 5.0 18.0 0.00 0.00 0.00 75 1005.0
20260505062546 74 175 3.0 15.0 0.00 0.00 0.00 75 1005.0
20260505062043 74 217 1.0 11.0 0.00 0.00 0.00 74 1005.0
20260505061557 74 164 3.0 14.0 0.00 0.00 0.00 74 1005.1
20260505061042 74 126 5.0 17.0 0.00 0.00 0.00 74 1005.0
20260505060542 74 169 3.0 17.0 0.00 0.00 0.00 73 1005.1
20260505060059 74 253 4.0 12.0 0.00 0.00 0.00 73 1005.0
20260505055542 74 182 3.0 11.0 0.00 0.00 0.00 73 1005.1
20260505055047 74 217 5.0 15.0 0.00 0.00 0.00 72 1005.1
20260505054609 74 225 4.0 15.0 0.00 0.00 0.00 72 1005.0
20260505054048 74 188 4.0 14.0 0.00 0.00 0.00 72 1005.0
20260505053543 75 250 3.0 17.0 0.00 0.00 0.00 72 1004.9
20260505053101 74 239 5.0 17.0 0.00 0.00 0.00 72 1004.9
20260505052547 74 219 5.0 16.0 0.00 0.00 0.00 72 1005.0
20260505052045 74 170 4.0 14.0 0.00 0.00 0.00 72 1005.1
20260505051549 75 190 4.0 13.0 0.00 0.00 0.00 72 1005.0
20260505051044 74 153 3.0 13.0 0.00 0.00 0.00 72 1005.0
20260505050543 74 61 3.0 12.0 0.00 0.00 0.00 72 1005.2
20260505050105 75 224 3.0 12.0 0.00 0.00 0.00 72 1005.3
20260505041602 75 174 4.0 14.0 0.00 0.00 0.00 71 1005.3
20260505041047 75 144 5.0 14.0 0.00 0.00 0.00 71 1005.3
20260505040547 75 155 4.0 12.0 0.00 0.00 0.00 71 1005.5
20260505040059 75 165 4.0 13.0 0.00 0.00 0.00 71 1005.6
20260505035546 75 153 4.0 15.0 0.00 0.00 0.00 71 1005.5
20260505035044 75 232 5.0 15.0 0.00 0.00 0.00 71 1005.6
20260505034549 75 163 5.0 15.0 0.00 0.00 0.00 71 1005.5
20260505034044 75 0 6.0 14.0 0.00 0.00 0.00 71 1005.4
20260505033544 75 138 4.0 12.0 0.00 0.00 0.00 71 1005.4
20260505033054 75 180 3.0 15.0 0.00 0.00 0.00 70 1005.4
20260505032543 75 223 5.0 15.0 0.00 0.00 0.00 70 1005.5
20260505032042 75 156 5.0 16.0 0.00 0.00 0.00 70 1005.3
20260505031605 75 209 6.0 16.0 0.00 0.00 0.00 70 1005.3
20260505031046 75 191 5.0 14.0 0.00 0.00 0.00 70 1005.6
20260505030542 75 186 4.0 14.0 0.00 0.00 0.00 70 1005.5
20260505030057 75 177 3.0 12.0 0.00 0.00 0.00 70 1005.5
20260505025542 75 282 5.0 12.0 0.00 0.00 0.00 70 1005.6
20260505025046 75 199 3.0 11.0 0.00 0.00 0.00 70 1005.7
20260505024600 76 170 4.0 11.0 0.00 0.00 0.00 70 1005.7
20260505024046 76 109 4.0 11.0 0.00 0.00 0.00 69 1005.5
20260505023550 76 155 3.0 11.0 0.00 0.00 0.00 69 1005.5
20260505023119 76 197 4.0 11.0 0.00 0.00 0.00 69 1005.5
20260505022543 76 181 3.0 11.0 0.00 0.00 0.00 69 1005.7
20260505022043 76 166 2.0 12.0 0.00 0.00 0.00 69 1005.7
20260505021553 76 44 5.0 12.0 0.00 0.00 0.00 68 1005.3
20260505021044 76 146 3.0 13.0 0.00 0.00 0.00 68 1005.3
20260505020542 76 204 3.0 14.0 0.00 0.00 0.00 68 1005.4
20260505020048 76 176 3.0 14.0 0.00 0.00 0.00 68 1005.4
20260505015543 76 167 4.0 16.0 0.00 0.00 0.00 68 1005.5
20260505015043 76 166 4.0 16.0 0.00 0.00 0.00 68 1005.4
20260505014548 76 143 5.0 15.0 0.00 0.00 0.00 67 1005.4
20260505014042 76 271 4.0 12.0 0.00 0.00 0.00 67 1005.5
20260505013542 76 186 4.0 16.0 0.00 0.00 0.00 67 1005.4
20260505013105 76 236 4.0 16.0 0.00 0.00 0.00 67 1005.6
20260505012547 76 202 3.0 13.0 0.00 0.00 0.00 67 1005.6
20260505012047 77 142 3.0 13.0 0.00 0.00 0.00 67 1005.5
20260505011551 77 167 4.0 15.0 0.00 0.00 0.00 66 1005.4
20260505011048 77 234 4.0 15.0 0.00 0.00 0.00 66 1005.7
20260505010546 77 196 5.0 14.0 0.00 0.00 0.00 66 1005.6
20260505010050 77 169 6.0 14.0 0.00 0.00 0.00 66 1005.7
20260505005546 77 178 3.0 13.0 0.00 0.00 0.00 66 1005.7
20260505005044 77 205 5.0 16.0 0.00 0.00 0.00 66 1005.6
20260505004554 77 180 6.0 16.0 0.00 0.00 0.00 65 1005.4
20260505004044 78 201 6.0 16.0 0.00 0.00 0.00 65 1005.6
20260505003544 78 168 4.0 14.0 0.00 0.00 0.00 65 1005.5
20260505003050 78 220 4.0 16.0 0.00 0.00 0.00 65 1005.5
20260505002544 78 182 4.0 16.0 0.00 0.00 0.00 65 1005.8
20260505002044 78 197 4.0 14.0 0.00 0.00 0.00 64 1005.8
20260505001552 78 219 5.0 19.0 0.00 0.00 0.00 64 1005.7
20260505001046 78 175 6.0 19.0 0.00 0.00 0.00 64 1005.9
20260505000544 78 238 4.0 14.0 0.00 0.00 0.00 64 1005.9
20260505000111 78 207 4.0 14.0 0.00 0.00 0.00 64 1005.9
20260504235544 78 258 6.0 19.0 0.00 0.00 0.00 64 1006.0
20260504235044 79 157 7.0 19.0 0.00 0.00 0.00 63 1005.9
20260504234550 79 205 4.0 15.0 0.00 0.00 0.00 63 1005.9
20260504234048 79 237 5.0 15.0 0.00 0.00 0.00 63 1005.9
20260504233545 79 207 3.0 14.0 0.00 0.00 0.00 62 1006.1
20260504233055 79 186 4.0 14.0 0.00 0.00 0.00 62 1006.2
20260504232545 79 216 5.0 13.0 0.00 0.00 0.00 62 1006.2
20260504232044 80 196 5.0 13.0 0.00 0.00 0.00 62 1006.1
20260504231552 80 183 2.0 17.0 0.00 0.00 0.00 62 1006.1
20260504231044 80 138 6.0 17.0 0.00 0.00 0.00 61 1006.0